Date,TemperatureHighF,TemperatureAvgF,TemperatureLowF,DewpointHighF,DewpointAvgF,DewpointLowF,HumidityHigh,HumidityAvg,HumidityLow,PressureMaxIn,PressureMinIn,WindSpeedMaxMPH,WindSpeedAvgMPH,GustSpeedMaxMPH,PrecipitationSumIn
2013-11-1,85.3,81.3,78.8,76.1,73.7,71.5,82,78,72,30.00,29.88,9,2,11,0.00
2013-11-2,90.1,79.7,71.2,74.3,71.1,66.0,97,77,46,29.93,29.80,5,0,13,0.00
2013-11-3,83.9,75.6,68.7,69.4,64.8,61.8,84,70,54,30.01,29.88,14,2,18,0.00
2013-11-4,83.3,77.4,74.8,70.7,65.8,58.9,77,68,51,30.06,29.99,15,3,18,0.00
2013-11-5,81.6,78.4,74.4,72.6,70.0,66.2,91,76,67,30.08,30.00,15,2,19,0.04
2013-11-6,85.5,79.7,75.5,73.3,70.9,68.9,81,75,61,30.05,29.98,9,1,16,0.00
2013-11-7,87.0,77.3,69.3,74.8,70.8,66.9,95,81,63,30.00,29.91,6,0,10,0.00
2013-11-8,86.4,77.3,71.6,75.7,71.8,68.5,94,84,63,30.02,29.92,11,2,17,0.24
2013-11-9,81.9,76.7,74.2,75.2,72.6,71.4,94,87,79,30.10,30.00,12,2,18,0.24
2013-11-10,83.9,79.3,77.4,74.1,71.5,68.9,84,77,69,30.11,30.03,10,1,14,0.00
2013-11-11,85.6,79.3,76.6,74.4,70.3,67.3,81,74,65,30.10,30.03,9,1,14,0.00
2013-11-12,85.7,78.5,71.9,73.0,69.8,68.0,91,75,62,30.07,29.96,5,0,10,0.00
2013-11-13,78.9,72.8,70.7,69.3,64.9,58.9,90,77,64,30.20,29.98,13,3,24,0.28
2013-11-14,77.1,72.9,70.2,64.8,60.5,56.5,73,65,59,30.23,30.12,12,2,19,0.00
2013-11-15,82.3,77.6,73.9,71.2,67.6,61.9,86,71,64,30.13,30.01,8,1,17,0.00
2013-11-16,81.1,78.4,72.4,73.2,70.1,64.0,88,76,67,30.09,30.00,11,2,14,0.00
2013-11-17,82.8,79.7,78.1,74.2,71.8,69.8,84,77,70,30.07,29.99,10,2,11,0.00
2013-11-18,82.8,78.4,75.2,74.8,72.1,70.8,90,81,70,30.02,29.91,5,0,7,0.00
2013-11-19,85.2,76.3,72.2,76.0,71.9,69.4,93,87,69,29.93,29.84,4,0,9,0.00
2013-11-20,85.7,77.2,70.0,77.1,72.4,68.5,97,86,74,30.05,29.91,5,0,9,0.00
2013-11-21,79.3,75.7,72.1,76.2,72.9,70.9,98,91,82,30.13,30.03,8,0,15,2.20
2013-11-22,82.4,77.7,73.5,74.1,71.8,70.0,94,82,73,30.14,30.06,9,2,15,0.08
2013-11-23,84.4,78.6,75.2,74.7,71.9,69.7,87,80,70,30.07,29.97,8,1,11,0.00
2013-11-24,83.5,74.7,67.7,71.9,68.6,64.2,96,82,64,30.13,29.97,16,2,21,0.51
2013-11-25,77.0,73.5,72.0,70.6,66.4,62.3,91,78,71,30.19,30.04,17,2,19,0.00
2013-11-26,81.1,77.6,73.3,75.7,73.2,69.7,92,86,80,30.04,29.82,13,4,19,0.04
2013-11-27,79.1,71.4,58.7,76.2,65.9,53.4,96,84,58,30.11,29.78,8,1,14,0.98
2013-11-28,74.8,63.8,49.0,64.6,55.2,46.2,91,74,60,30.23,30.11,9,1,13,0.00
2013-11-29,78.9,72.0,62.7,65.0,61.1,55.9,86,69,56,30.26,30.18,11,2,16,0.00
2013-11-30,77.7,71.7,63.0,70.6,64.5,60.0,91,78,68,30.20,30.09,9,1,18,0.08